Temp
72 75 72 73 64 59 51 59 65 70 69 78 79 76 73 76 72 62 78 79 80 75 76 79 79 80 80 80 79 79 79 79 79 79 79 79 79 79 79 79 80 80 81 81 81 81 81 81 81
74 80 74 67 57 50 52 63 70 70 75 79 80 78 75 70 80 76 77 82 80 76 73 75 79 79 80 79 79 79 79 79 79 79 79 79 79 79 79 79 80 80 81 81 81 81 81 80 80
76 79 68 60 53 52 54 63 66 71 73 75 74 81 78 74 81 80 83 82 79 74 74 77 79 79 79 79 79 79 79 79 79 79 79 79 79 79 79 79 80 80 80 81 81 80 80 80 80
76 72 67 59 53 62 64 67 70 67 70 82 79 73 80 85 83 83 84 81 77 73 74 78 79 79 79 79 79 79 79 79 79 79 79 79 79 79 79 79 79 80 80 80 80 80 80 80 79
71 64 57 52 57 64 70 72 76 75 77 78 80 73 73 83 87 85 82 81 76 73 75 76 79 79 79 80 79 79 79 79 79 79 80 79 79 79 79 79 79 80 80 80 80 80 79 79 78
66 63 54 51 57 67 71 72 73 74 76 77 76 75 74 84 84 84 83 79 78 75 74 76 79 79 79 79 79 79 78 79 79 79 79 79 79 79 79 79 79 79 79 79 80 79 79 78 78
63 58 53 53 59 64 71 74 71 68 71 72 80 72 74 81 83 85 82 81 79 76 74 74 75 78 79 78 78 78 78 78 78 79 79 79 79 79 79 79 79 79 79 79 79 79 78 78 78
68 62 53 55 60 63 72 74 74 72 70 83 85 70 67 80 85 84 82 79 77 76 75 73 74 74 74 75 78 78 78 79 79 80 79 78 78 79 79 78 78 79 79 79 78 78 78 78 77
71 58 51 56 62 66 73 69 76 79 75 80 81 81 83 85 86 83 79 77 76 77 74 72 73 72 72 73 77 78 80 79 79 77 78 73 70 72 75 79 81 80 80 79 79 78 78 78 78
66 55 59 70 74 74 73 70 76 77 76 76 79 83 85 85 83 79 77 76 75 73 73 71 72 71 71 81 72 71 74 71 71 71 70 69 69 70 75 75 78 78 79 79 79 79 79 77 70
63 62 68 76 77 77 77 78 78 75 70 76 76 79 82 83 79 79 80 78 75 74 74 73 73 72 71 72 69 68 69 68 69 71 69 69 70 68 69 68 69 68 75 70 72 71 70 68 68
62 73 73 78 78 77 77 81 77 76 76 82 82 83 83 81 78 79 79 78 74 74 71 71 71 71 70 69 69 68 68 67 67 69 70 67 67 68 68 68 68 67 67 68 67 67 68 69 70
69 74 76 78 77 75 81 79 77 75 81 84 84 83 81 77 78 79 80 77 73 72 71 71 71 69 70 70 68 68 68 69 69 69 70 68 67 67 68 68 68 68 68 67 67 66 67 67 67
73 74 76 77 72 73 76 75 76 78 83 82 82 80 78 76 76 76 76 72 72 71 70 71 71 70 71 69 69 69 69 69 69 69 69 70 68 67 67 67 67 67 67 67 66 65 65 65 65
74 69 72 73 72 71 79 70 72 80 82 80 80 80 78 77 78 78 77 73 72 71 71 71 71 71 71 70 70 69 69 72 69 69 70 71 69 67 66 65 65 65 65 65 65 65 64 63 64
68 63 57 69 74 74 75 62 73 80 79 77 78 79 78 76 78 77 76 74 70 70 71 71 80 72 70 70 70 70 69 69 68 68 68 71 70 67 65 64 63 64 63 63 62 61 60 59 59
60 55 58 67 73 76 71 64 77 75 78 74 76 75 78 75 75 76 77 77 74 74 72 72 73 71 70 69 69 69 68 68 67 68 67 67 68 67 62 61 61 61 60 59 58 57 56 55 57
54 56 60 60 69 66 63 67 73 75 76 75 74 75 77 75 75 77 76 78 76 76 75 74 73 69 69 69 68 67 67 67 66 64 63 64 63 65 61 60 59 58 56 55 54 53 53 53 54
63 61 62 67 73 69 67 67 71 72 73 74 74 74 75 75 78 78 77 77 76 75 70 68 69 67 67 65 65 63 63 62 62 62 63 62 62 62 58 55 55 54 53 52 53 51 50 52 52
65 63 62 67 72 66 63 65 70 69 73 74 74 74 75 74 72 76 74 74 74 69 67 65 65 63 64 62 62 62 60 60 59 59 59 60 60 59 60 54 52 51 50 50 49 49 49 48 50
64 61 61 63 66 67 63 60 63 71 71 72 76 79 77 75 72 75 74 70 67 66 65 64 63 63 62 61 61 58 58 57 57 59 57 56 57 57 55 53 51 49 48 47 47 47 46 47 50
58 69 69 67 60 53 62 49 58 64 67 69 74 70 74 74 76 76 68 64 65 64 65 64 63 62 61 59 57 55 53 51 52 51 52 53 54 54 55 53 51 48 47 46 51 55 52 52 49
66 70 66 65 57 52 56 50 56 59 64 66 69 74 75 76 74 69 65 65 65 65 63 62 61 59 57 56 55 53 51 50 50 49 48 48 50 51 53 54 57 55 55 55 54 53 52 52 50
73 66 60 56 52 45 52 51 49 56 60 64 65 67 71 68 65 64 65 66 64 64 62 59 57 55 55 55 53 51 49 48 46 45 45 47 47 53 56 56 55 54 54 53 53 52 52 51 51
63 52 42 43 42 43 55 52 54 62 67 66 63 63 63 64 64 64 63 62 62 60 59 58 54 52 53 53 51 49 47 45 44 44 44 45 50 50 51 53 53 53 53 53 53 52 51 51 50
60 55 41 38 37 45 55 48 56 65 69 68 67 65 66 65 64 62 62 61 59 58 56 54 53 51 50 49 47 46 45 44 44 44 46 46 48 51 52 52 52 52 52 52 51 51 50 51 50
60 54 59 49 46 43 48 55 62 65 63 65 66 64 61 61 62 61 60 59 57 55 54 52 51 48 48 47 45 45 45 45 44 45 44 45 50 52 51 50 50 49 50 49 50 49 48 49 48
65 66 51 45 38 36 45 48 48 54 58 61 61 59 61 62 61 59 59 57 56 53 52 51 50 47 46 45 44 45 45 45 44 44 43 48 51 51 50 49 50 50 50 50 49 48 49 47 47
61 54 52 49 44 38 35 42 53 51 54 55 61 60 60 60 59 58 57 56 54 52 50 48 46 45 44 45 45 44 44 44 44 43 49 50 50 51 49 50 49 49 49 49 48 48 48 47 47
60 54 49 41 42 42 40 40 59 55 57 61 60 63 61 62 58 56 54 54 52 49 48 46 45 45 45 45 45 44 43 43 43 45 50 50 49 50 50 50 49 49 49 49 48 47 48 48 48
MSLP
1011.44 1011.29 1011.52 1011.74 1013.00 1013.86 1015.00 1014.65 1013.41 1013.49 1013.39 1012.69 1011.77 1011.79 1011.89 1011.83 1012.52 1014.12 1014.34 1014.52 1014.72 1015.14 1015.23 1015.18 1015.15 1015.18 1015.30 1015.38 1015.56 1015.67 1015.83 1015.99 1015.95 1016.05 1016.10 1016.10 1016.10 1016.09 1016.18 1016.23 1016.31 1016.37 1016.36 1016.31 1016.32 1016.30 1016.25 1016.20 1016.13
1011.22 1011.18 1011.76 1012.26 1013.55 1014.67 1015.06 1013.90 1013.58 1013.39 1013.65 1013.14 1011.75 1012.14 1011.85 1012.79 1012.81 1014.14 1014.56 1014.82 1014.84 1015.25 1015.34 1015.31 1015.24 1015.34 1015.42 1015.61 1015.72 1015.81 1015.87 1016.05 1016.10 1016.16 1016.17 1016.24 1016.22 1016.25 1016.24 1016.30 1016.32 1016.32 1016.29 1016.27 1016.28 1016.27 1016.21 1016.12 1016.02
1011.12 1011.26 1012.54 1012.95 1014.05 1014.39 1013.82 1013.62 1014.06 1012.84 1013.46 1012.69 1012.00 1011.88 1012.13 1012.59 1013.06 1013.66 1014.03 1014.71 1014.95 1015.43 1015.41 1015.25 1015.30 1015.42 1015.57 1015.70 1015.77 1015.93 1016.03 1016.13 1016.15 1016.14 1016.25 1016.26 1016.23 1016.23 1016.23 1016.34 1016.31 1016.22 1016.18 1016.18 1016.16 1016.13 1016.11 1016.08 1016.04
1011.29 1012.02 1012.86 1013.11 1013.23 1012.53 1012.42 1013.24 1013.50 1013.44 1012.94 1011.80 1011.63 1012.11 1012.47 1012.37 1012.47 1012.98 1013.96 1014.55 1015.19 1015.37 1015.40 1015.36 1015.52 1015.65 1015.68 1015.81 1015.90 1016.05 1016.08 1016.23 1016.21 1016.25 1016.28 1016.29 1016.29 1016.34 1016.35 1016.34 1016.27 1016.28 1016.18 1016.17 1016.10 1016.05 1016.03 1015.97 1015.89
1011.75 1012.88 1013.44 1013.36 1012.59 1012.17 1012.19 1011.99 1012.68 1012.06 1011.56 1011.14 1010.61 1012.06 1012.69 1012.70 1012.57 1013.25 1013.97 1014.61 1014.74 1015.36 1015.41 1015.57 1015.71 1015.70 1015.86 1016.00 1016.06 1016.10 1016.23 1016.27 1016.38 1016.33 1016.39 1016.44 1016.42 1016.44 1016.38 1016.42 1016.37 1016.30 1016.22 1016.07 1015.92 1015.87 1015.82 1015.83 1015.70
1012.36 1012.97 1013.50 1013.18 1012.49 1012.01 1011.97 1012.11 1011.65 1011.41 1011.39 1011.23 1011.45 1011.55 1012.93 1012.75 1012.96 1013.43 1013.93 1014.35 1014.42 1015.25 1015.68 1015.72 1015.89 1015.93 1016.00 1016.11 1016.18 1016.25 1016.31 1016.41 1016.47 1016.51 1016.44 1016.48 1016.44 1016.30 1016.36 1016.38 1016.20 1016.08 1016.02 1015.94 1015.86 1015.64 1015.69 1015.66 1015.53
1012.22 1013.01 1013.10 1012.95 1012.04 1011.46 1011.34 1011.40 1011.45 1011.40 1011.47 1011.44 1010.88 1012.22 1012.85 1012.82 1012.87 1013.19 1013.73 1014.21 1014.76 1015.31 1015.72 1015.94 1016.02 1016.06 1016.09 1016.11 1016.19 1016.31 1016.37 1016.39 1016.45 1016.40 1016.35 1016.29 1016.14 1016.12 1016.19 1016.11 1016.09 1016.02 1015.93 1015.81 1015.66 1015.68 1015.56 1015.44 1015.30
1011.61 1012.39 1012.67 1012.27 1011.98 1010.73 1010.36 1011.01 1011.08 1011.17 1011.34 1010.94 1010.51 1011.26 1012.27 1012.28 1012.63 1013.18 1013.82 1014.42 1014.95 1015.41 1015.53 1015.87 1015.99 1016.07 1016.13 1016.18 1016.26 1016.38 1016.42 1016.45 1016.43 1016.39 1016.41 1016.34 1016.21 1016.01 1016.09 1016.07 1016.01 1015.92 1015.78 1015.64 1015.62 1015.53 1015.37 1015.18 1015.05
1010.81 1011.88 1012.35 1011.77 1011.08 1009.90 1010.30 1010.41 1010.79 1010.75 1010.65 1010.32 1010.16 1010.15 1010.91 1011.70 1012.49 1013.37 1014.40 1015.00 1015.47 1015.71 1015.63 1015.84 1016.03 1016.20 1016.28 1016.40 1016.44 1016.50 1016.51 1016.50 1016.45 1016.52 1016.50 1016.46 1016.47 1016.35 1016.19 1016.04 1015.88 1015.82 1015.60 1015.47 1015.36 1015.32 1015.15 1015.00 1014.86
1010.73 1011.39 1011.01 1010.20 1009.55 1010.03 1010.82 1010.60 1010.51 1010.60 1010.50 1010.48 1010.21 1010.28 1010.86 1011.53 1012.55 1013.49 1014.33 1015.03 1015.61 1015.87 1015.96 1015.95 1016.04 1016.29 1016.48 1016.32 1016.55 1016.66 1016.63 1016.68 1016.61 1016.57 1016.55 1016.52 1016.46 1016.34 1016.18 1016.04 1015.87 1015.69 1015.59 1015.42 1015.27 1015.10 1014.98 1014.95 1014.87
1010.37 1010.51 1009.71 1008.76 1009.29 1009.12 1009.50 1009.22 1010.16 1010.18 1010.47 1009.52 1009.95 1010.38 1010.99 1011.81 1012.47 1013.44 1014.11 1014.61 1015.08 1015.50 1015.73 1015.83 1015.83 1016.14 1016.47 1016.46 1016.71 1016.84 1016.78 1016.82 1016.71 1016.54 1016.50 1016.41 1016.39 1016.37 1016.27 1016.14 1015.99 1015.82 1015.53 1015.46 1015.28 1015.09 1014.91 1014.82 1014.71
1010.12 1009.22 1009.05 1008.15 1007.74 1008.37 1008.65 1009.67 1009.81 1009.17 1009.30 1009.35 1009.44 1009.86 1010.78 1011.90 1012.56 1013.20 1014.17 1014.74 1015.09 1015.52 1015.83 1015.52 1015.66 1016.11 1016.34 1016.52 1016.65 1016.73 1016.80 1016.85 1016.86 1016.57 1016.48 1016.52 1016.54 1016.38 1016.21 1016.08 1015.83 1015.75 1015.55 1015.40 1015.25 1015.09 1014.77 1014.56 1014.33
1009.36 1008.52 1007.91 1007.24 1007.10 1006.90 1006.97 1008.30 1008.80 1009.48 1009.43 1009.50 1009.63 1010.18 1010.94 1011.93 1012.35 1013.14 1013.80 1014.49 1015.02 1015.46 1015.69 1015.34 1015.72 1016.20 1016.14 1016.31 1016.62 1016.78 1016.89 1016.80 1016.65 1016.58 1016.43 1016.43 1016.40 1016.32 1016.03 1015.86 1015.70 1015.54 1015.31 1015.22 1014.99 1014.82 1014.59 1014.34 1014.08
1008.45 1008.03 1007.38 1006.74 1006.42 1006.47 1007.04 1008.04 1008.32 1009.69 1009.48 1009.52 1009.84 1010.28 1011.13 1011.68 1012.14 1013.08 1013.81 1014.50 1014.86 1015.27 1015.34 1015.13 1015.62 1015.71 1015.91 1016.32 1016.39 1016.55 1016.63 1016.74 1016.52 1016.56 1016.47 1016.36 1016.23 1016.03 1015.88 1015.77 1015.62 1015.51 1015.21 1015.05 1014.97 1014.81 1014.60 1014.26 1013.93
1008.40 1008.13 1007.18 1006.66 1006.50 1006.64 1007.24 1008.76 1008.92 1009.09 1009.25 1009.52 1009.92 1010.34 1011.04 1011.25 1011.75 1012.59 1013.24 1014.10 1014.53 1015.20 1014.78 1015.06 1015.33 1015.54 1015.93 1016.25 1016.27 1016.38 1016.39 1016.32 1016.52 1016.58 1016.50 1016.51 1016.29 1016.32 1016.41 1016.43 1016.40 1016.09 1015.65 1015.41 1015.12 1014.79 1014.53 1014.39 1014.08
1009.02 1008.70 1008.35 1007.27 1006.88 1006.65 1006.91 1008.67 1009.22 1009.06 1009.15 1009.70 1009.97 1010.37 1011.10 1011.47 1011.55 1012.31 1013.06 1013.67 1014.42 1014.79 1014.76 1015.00 1015.18 1015.58 1015.95 1016.20 1016.20 1016.27 1016.35 1016.55 1016.73 1016.62 1016.66 1016.66 1016.78 1016.92 1016.81 1016.66 1016.60 1016.19 1015.81 1015.49 1015.30 1015.04 1014.77 1014.50 1014.20
1009.96 1009.49 1008.77 1007.89 1007.03 1007.10 1007.32 1008.26 1008.64 1008.95 1009.19 1009.64 1010.04 1010.50 1011.00 1011.45 1011.72 1011.80 1012.12 1012.61 1013.20 1013.44 1014.05 1014.43 1014.65 1015.21 1015.48 1015.80 1015.93 1015.99 1016.41 1016.63 1016.90 1016.89 1017.06 1017.25 1017.19 1017.06 1017.04 1016.88 1016.61 1016.24 1015.96 1015.73 1015.58 1015.34 1015.12 1014.79 1014.29
1010.63 1010.20 1009.46 1008.79 1007.91 1008.05 1008.04 1007.85 1008.49 1008.87 1009.09 1009.25 1009.64 1010.05 1010.52 1010.76 1010.82 1011.09 1011.43 1011.74 1011.82 1012.27 1012.56 1013.20 1014.19 1014.96 1015.58 1015.85 1016.09 1016.37 1016.51 1016.78 1017.14 1017.46 1017.66 1017.73 1017.66 1017.44 1017.15 1016.85 1016.64 1016.38 1016.24 1016.04 1015.87 1015.68 1015.31 1015.00 1014.50
1010.30 1010.16 1009.72 1008.68 1007.75 1008.19 1007.81 1007.95 1008.12 1008.59 1008.99 1009.13 1009.31 1009.56 1009.84 1009.84 1009.96 1010.52 1010.82 1011.19 1011.74 1012.05 1013.44 1014.22 1014.71 1015.30 1015.76 1016.28 1016.65 1017.05 1017.37 1017.47 1017.78 1017.93 1017.96 1017.79 1017.45 1017.35 1017.30 1017.26 1017.09 1016.92 1016.82 1016.62 1016.26 1015.87 1015.57 1015.09 1014.53
1009.92 1009.86 1009.39 1008.51 1007.79 1007.86 1007.73 1008.12 1007.92 1008.28 1008.22 1008.50 1008.67 1008.91 1008.90 1009.64 1010.01 1010.44 1010.90 1011.35 1011.62 1013.08 1013.89 1014.87 1015.68 1016.13 1016.51 1016.66 1017.11 1017.45 1017.82 1018.00 1017.97 1017.93 1017.97 1017.94 1017.89 1017.84 1017.61 1017.70 1017.63 1017.37 1017.03 1016.68 1016.30 1015.96 1015.50 1015.00 1014.58
1009.33 1009.26 1008.83 1008.85 1008.20 1007.82 1008.26 1008.81 1008.51 1008.12 1008.03 1008.04 1008.14 1007.79 1008.19 1008.53 1009.27 1010.19 1011.03 1012.13 1012.96 1013.84 1014.70 1015.54 1016.08 1016.45 1016.94 1017.40 1017.68 1017.96 1018.19 1018.21 1018.30 1018.23 1018.42 1018.50 1018.38 1018.26 1018.01 1017.70 1017.48 1017.27 1016.90 1016.47 1016.07 1015.66 1015.33 1014.59 1014.20
1008.33 1008.21 1008.62 1008.67 1009.19 1009.51 1009.28 1010.23 1009.36 1008.84 1008.61 1008.63 1008.49 1008.26 1008.08 1008.18 1008.87 1009.82 1011.73 1013.03 1013.87 1014.91 1015.64 1016.14 1016.76 1017.25 1017.67 1017.79 1018.08 1018.74 1019.25 1019.52 1019.54 1019.40 1019.20 1019.01 1018.69 1018.29 1017.87 1017.56 1017.27 1016.98 1016.48 1016.07 1015.64 1015.09 1014.74 1014.29 1013.73
1007.56 1007.81 1008.69 1009.30 1010.28 1010.71 1010.92 1011.05 1009.90 1009.29 1008.85 1008.30 1007.63 1007.63 1007.39 1007.46 1009.07 1011.24 1012.70 1013.83 1014.89 1015.75 1016.35 1016.93 1017.53 1018.12 1018.36 1018.47 1018.83 1019.22 1019.65 1019.94 1019.82 1019.81 1019.72 1019.45 1018.88 1018.33 1017.78 1017.25 1016.72 1016.46 1016.06 1015.58 1015.13 1014.65 1014.24 1013.89 1013.48
1007.09 1008.47 1009.77 1010.72 1011.61 1012.53 1011.76 1011.63 1011.12 1009.92 1009.18 1008.81 1008.34 1007.74 1007.85 1008.99 1010.58 1012.09 1013.55 1014.57 1015.65 1016.70 1017.50 1018.20 1018.43 1018.95 1019.16 1019.35 1019.72 1020.23 1020.26 1020.31 1020.41 1020.32 1019.95 1019.36 1018.73 1018.18 1017.52 1017.06 1016.61 1016.08 1015.67 1015.23 1014.74 1014.23 1013.74 1013.31 1012.90
1007.99 1010.03 1011.70 1012.97 1013.63 1013.63 1012.16 1011.52 1010.80 1009.77 1009.31 1009.15 1009.62 1010.00 1010.62 1010.68 1012.03 1013.36 1014.12 1015.43 1016.55 1017.46 1018.16 1018.77 1019.08 1019.73 1020.02 1020.20 1020.45 1021.12 1020.56 1020.54 1020.54 1020.34 1019.98 1019.48 1018.77 1018.17 1017.48 1016.93 1016.36 1015.87 1015.35 1014.80 1014.26 1013.68 1013.14 1012.69 1012.22
1008.34 1010.11 1012.00 1013.30 1014.54 1014.09 1012.74 1011.91 1010.97 1010.64 1010.99 1010.51 1010.44 1010.96 1011.56 1012.71 1013.78 1014.66 1015.69 1016.45 1017.25 1018.12 1018.79 1019.34 1019.91 1020.52 1020.50 1020.97 1021.53 1021.30 1020.57 1020.63 1020.46 1020.21 1019.90 1019.45 1018.77 1018.01 1017.36 1016.83 1016.16 1015.58 1014.93 1014.43 1013.87 1013.27 1012.65 1012.08 1011.53
1008.17 1009.69 1010.76 1012.64 1014.19 1014.76 1013.66 1012.40 1011.47 1011.19 1012.66 1012.11 1011.77 1011.76 1012.83 1013.60 1014.70 1015.42 1016.38 1017.06 1017.81 1018.86 1019.63 1020.23 1020.48 1021.40 1021.61 1021.67 1021.51 1020.84 1020.63 1020.61 1020.54 1020.29 1019.84 1019.25 1018.59 1017.89 1017.21 1016.67 1016.09 1015.39 1014.74 1014.18 1013.48 1012.80 1012.16 1011.58 1010.99
1007.17 1008.80 1011.19 1013.43 1015.13 1015.69 1014.76 1013.93 1013.97 1013.93 1014.25 1014.15 1014.33 1014.59 1014.22 1014.74 1015.61 1016.47 1017.33 1018.10 1018.63 1019.67 1020.47 1021.04 1021.47 1021.86 1021.92 1021.54 1020.96 1020.86 1020.90 1020.77 1020.54 1020.16 1019.66 1019.07 1018.38 1017.68 1017.08 1016.49 1015.88 1015.19 1014.55 1013.84 1013.14 1012.41 1011.67 1011.08 1010.36
1008.11 1009.50 1011.64 1013.54 1015.07 1015.93 1015.96 1015.65 1015.22 1015.18 1014.92 1014.99 1014.64 1015.35 1015.83 1016.33 1016.96 1018.15 1018.62 1019.19 1019.36 1020.37 1021.05 1021.74 1022.01 1022.09 1022.02 1021.42 1021.15 1021.21 1021.17 1020.82 1020.38 1019.95 1019.38 1018.85 1018.26 1017.64 1017.07 1016.47 1015.80 1015.09 1014.35 1013.61 1012.85 1012.07 1011.24 1010.48 1009.69
1009.06 1010.65 1012.17 1014.38 1015.82 1016.31 1016.50 1016.02 1015.13 1014.77 1014.63 1015.02 1015.84 1016.45 1016.92 1017.75 1018.71 1019.67 1020.36 1020.34 1020.52 1021.20 1021.74 1022.08 1022.33 1022.35 1022.01 1021.37 1021.28 1021.33 1021.06 1020.62 1020.15 1019.70 1019.26 1018.78 1018.28 1017.66 1017.08 1016.37 1015.76 1015.00 1014.21 1013.39 1012.55 1011.73 1010.86 1010.03 1009.24
Wind_Speed
5 5 1 4 6 7 1 5 5 5 6 6 9 9 10 11 3 5 4 10 12 8 6 8 12 13 12 12 11 10 9 8 9 8 7 7 7 7 6 6 5 4 4 4 4 4 3 3 3
3 1 4 2 7 4 4 5 6 11 5 3 16 15 19 12 7 11 7 8 10 8 5 6 12 12 13 11 11 10 10 8 8 7 7 6 6 5 5 4 4 3 2 2 2 2 1 1 2
3 2 4 4 4 5 6 5 12 8 1 12 4 4 4 4 10 7 13 13 10 7 6 8 12 12 12 12 10 9 9 8 8 7 6 6 5 5 4 3 2 1 1 2 3 4 5 6 6
3 5 5 5 3 5 5 9 12 12 14 11 12 8 5 6 5 11 16 13 10 7 6 10 11 11 11 11 10 9 9 8 7 6 6 5 4 4 3 2 2 2 3 4 6 7 7 7 8
4 3 4 1 5 4 5 6 24 17 7 12 13 10 3 3 16 19 16 12 13 7 6 7 10 11 10 10 10 9 8 7 6 5 4 2 1 1 2 3 4 5 6 7 8 8 8 8 9
5 3 4 2 3 5 6 7 9 10 8 13 12 13 5 9 13 15 14 11 11 10 6 6 9 9 9 9 8 8 7 6 5 3 2 2 3 4 4 5 6 6 8 8 9 10 10 10 11
5 4 4 3 4 2 7 10 6 6 6 2 17 7 6 8 8 13 12 11 10 10 8 6 6 8 9 9 8 7 7 5 3 3 3 5 6 5 4 6 7 8 8 9 10 10 11 11 11
5 5 3 1 3 5 12 7 6 9 7 9 13 8 8 12 12 12 12 10 10 9 9 7 6 5 5 5 8 7 7 6 3 4 7 8 7 6 2 5 7 8 9 9 10 11 11 11 11
4 3 1 4 0 5 7 5 7 3 6 3 5 8 15 13 14 12 9 6 6 6 8 6 6 5 4 5 5 5 6 5 3 4 7 6 4 6 6 7 7 6 7 8 9 9 9 7 7
4 3 5 8 6 12 7 1 10 6 8 6 13 11 15 17 14 15 12 11 7 7 6 6 6 6 5 4 5 4 3 2 2 4 4 3 4 4 4 6 7 9 7 7 6 4 5 5 4
2 6 5 13 10 17 18 15 5 13 6 20 23 20 16 13 8 10 15 12 10 8 5 8 8 6 5 4 3 1 2 2 1 3 3 3 3 2 2 2 3 3 5 3 4 4 2 4 3
2 8 6 13 6 11 20 17 9 6 10 17 19 19 15 13 9 9 15 14 11 9 7 6 8 7 6 4 4 4 4 3 2 2 4 3 1 1 2 2 3 3 3 5 4 3 5 6 6
7 10 8 11 9 4 6 8 14 10 16 16 16 14 13 8 9 9 14 10 11 10 8 9 9 8 7 7 4 4 3 3 4 4 4 3 3 4 3 4 3 4 4 4 5 5 5 5 6
6 8 10 6 3 1 10 6 7 10 18 16 16 13 10 14 13 14 13 9 7 8 8 8 8 7 7 5 4 3 3 4 3 3 4 6 5 5 5 5 5 4 4 5 4 4 5 5 5
5 6 6 3 2 2 11 5 10 18 18 18 15 11 11 14 18 19 15 11 11 7 8 9 9 7 6 5 3 2 2 2 2 4 5 5 5 5 6 4 5 5 5 6 5 5 4 4 5
6 5 4 6 4 1 7 5 7 16 18 16 13 9 15 14 19 16 14 13 9 9 9 8 7 7 6 5 3 2 1 3 4 4 4 8 10 8 5 4 4 5 4 4 4 3 4 4 4
6 2 1 8 5 5 5 6 19 10 16 13 12 9 17 14 13 17 20 21 18 16 13 11 10 10 9 6 4 2 4 3 4 5 6 8 9 9 6 4 4 5 4 4 4 4 4 4 5
4 4 6 5 7 1 3 8 12 14 16 17 14 13 18 18 19 19 20 20 19 17 17 12 9 8 7 5 3 3 4 5 6 5 5 6 4 6 5 5 6 6 4 4 4 4 3 4 6
3 3 7 8 9 9 14 8 9 13 11 15 16 13 17 19 19 19 19 18 16 14 8 8 8 4 4 3 3 4 3 3 4 4 4 7 7 9 6 4 6 6 5 4 5 3 5 5 4
6 9 11 10 6 8 6 10 9 8 11 16 18 16 17 14 9 15 14 14 14 9 9 11 11 9 7 4 3 3 2 3 2 3 5 8 9 9 8 5 4 5 4 5 4 4 6 3 2
6 5 4 8 3 3 5 5 2 5 5 8 13 20 15 19 18 16 14 8 9 11 13 13 12 11 8 7 4 4 3 3 4 8 6 7 9 8 6 4 4 4 3 4 4 5 6 8 5
3 4 3 6 7 1 3 4 5 4 8 8 15 9 14 15 15 17 11 12 14 14 13 13 12 12 9 7 8 7 3 3 2 3 4 6 7 8 7 5 5 5 4 5 6 9 7 8 8
7 0 2 2 4 3 6 6 9 2 8 8 9 17 18 18 10 15 16 17 16 13 13 12 13 12 9 10 8 6 5 3 3 4 6 5 5 7 7 7 12 10 8 9 10 10 10 8 8
1 5 9 6 4 5 6 6 7 5 4 6 8 8 6 14 20 21 19 18 16 14 13 11 13 11 10 10 10 8 9 7 4 4 4 5 4 6 9 9 9 9 9 10 9 11 12 10 10
8 8 4 5 6 6 7 3 8 8 2 6 10 15 16 20 20 19 20 17 15 14 12 11 12 11 10 11 11 7 6 6 4 5 4 6 7 7 8 11 10 9 11 12 11 11 11 11 10
5 9 8 7 4 5 6 3 2 5 9 10 13 17 19 18 16 18 16 15 15 14 13 12 12 11 10 8 5 3 6 2 3 4 5 4 6 8 11 11 11 11 12 12 11 9 9 11 10
5 3 7 7 3 4 4 5 3 8 17 11 11 17 16 19 17 17 16 15 15 13 11 11 12 8 6 4 1 5 6 6 5 6 5 4 8 8 11 11 11 12 12 12 12 9 11 11 11
9 6 2 4 3 3 4 1 2 12 14 8 8 7 14 15 15 15 14 14 13 13 11 11 9 6 3 5 5 5 6 6 6 5 6 8 9 10 11 12 12 12 12 12 12 10 11 11 10
4 3 7 6 5 7 2 3 1 1 4 4 8 9 10 13 13 12 12 12 13 12 10 8 6 6 5 4 5 6 5 5 5 5 6 7 8 10 10 11 12 12 12 12 11 12 12 12 12
5 4 6 7 2 2 4 6 5 3 8 15 10 6 9 12 12 11 9 11 11 10 9 7 5 4 3 4 5 4 5 5 6 6 7 7 8 9 9 10 11 11 11 12 12 12 12 11 11
Wind_Direction
267 261 117 40 57 66 45 250 201 117 53 23 70 67 89 47 59 141 82 131 126 135 148 127 114 114 110 109 110 109 111 109 112 110 106 103 102 100 92 92 88 72 69 70 63 53 43 30 16
287 30 40 54 81 70 261 263 340 45 80 160 81 77 66 74 58 110 106 145 135 136 133 128 116 112 114 114 113 113 116 115 114 115 118 118 115 107 105 105 101 84 61 46 34 16 333 288 286
294 65 77 87 106 161 208 190 97 106 315 259 111 31 79 94 110 144 132 144 129 125 136 123 119 120 121 120 114 115 114 115 115 116 120 125 129 135 134 137 148 156 344 328 321 306 295 293 292
29 11 20 78 276 245 171 133 147 168 222 132 136 74 47 113 119 142 134 132 129 128 125 121 123 120 116 115 114 115 112 113 114 118 124 132 146 158 156 201 234 285 295 304 297 286 284 288 288
43 62 54 33 273 23 54 124 160 159 120 144 140 129 85 57 121 135 132 141 129 126 126 118 124 119 118 117 114 113 112 113 113 114 114 138 174 241 258 286 308 297 295 284 279 281 277 278 277
13 100 61 271 325 77 111 143 120 111 114 111 95 112 140 150 136 135 137 140 133 132 126 119 121 119 121 120 118 114 111 110 102 102 74 341 301 285 302 299 284 276 274 283 286 283 289 286 283
136 85 212 120 248 266 167 157 157 159 160 136 137 118 141 160 150 134 142 131 126 127 124 127 133 137 136 133 129 127 124 116 110 74 23 346 319 305 285 281 293 293 293 288 285 291 289 286 285
122 99 3 231 211 256 149 146 154 162 204 158 161 148 182 178 159 132 144 130 127 140 139 142 143 147 141 143 140 137 131 118 96 36 12 36 28 4 312 310 295 297 289 285 292 290 303 305 300
134 66 358 281 176 211 149 141 154 237 161 202 189 137 158 161 151 146 130 111 118 141 144 146 154 155 156 143 152 144 145 141 100 52 53 51 41 46 46 37 36 346 342 316 314 314 319 326 325
103 78 244 195 18 52 331 197 188 166 173 119 114 112 143 154 159 153 154 155 162 164 155 154 165 167 172 167 148 152 162 164 157 110 78 83 58 43 50 19 23 4 3 4 353 8 356 343 314
180 203 238 277 173 150 210 206 210 140 164 152 149 149 155 158 151 151 166 158 166 161 159 178 170 164 183 159 154 156 201 177 180 109 117 121 88 50 27 344 346 339 342 328 327 317 314 310 298
228 252 225 270 242 160 198 186 167 171 174 157 151 156 158 162 163 164 148 145 142 142 151 146 134 139 169 158 162 177 181 178 183 200 167 144 166 196 243 264 283 308 299 306 291 272 283 294 295
187 259 253 235 237 222 122 163 158 172 152 151 152 165 171 144 162 142 149 144 145 140 160 122 126 148 140 129 148 153 173 190 212 217 217 198 201 225 232 249 255 259 271 269 279 271 280 290 288
290 289 260 219 309 129 112 110 95 165 154 152 164 183 136 139 137 132 142 144 139 148 155 136 137 147 147 143 153 153 156 175 207 211 233 246 236 230 227 251 256 276 275 292 288 284 289 288 291
290 313 349 1 323 106 119 68 149 163 160 165 175 177 146 136 137 148 155 154 153 182 147 150 151 152 137 147 149 138 238 243 219 231 259 299 277 290 324 328 327 322 327 320 323 321 331 341 328
339 42 41 282 339 338 96 200 168 168 165 170 168 158 148 156 151 157 161 156 165 159 150 164 160 153 152 176 182 201 277 357 335 332 356 24 49 38 27 21 9 338 335 336 328 319 314 298 292
359 223 257 299 218 199 125 205 186 182 169 168 177 160 162 165 167 168 165 165 170 165 166 175 167 167 180 175 182 164 44 43 44 53 44 36 28 21 15 359 322 325 327 336 341 332 331 323 320
267 10 319 268 295 235 222 226 154 184 170 176 186 172 176 175 182 174 171 172 167 173 177 167 160 158 157 166 145 117 69 54 58 39 59 40 16 5 355 358 359 4 3 358 354 337 323 291 296
238 242 256 258 255 192 210 186 217 178 186 183 191 187 183 188 184 182 179 173 173 179 115 114 128 115 104 64 57 34 50 47 64 52 53 20 14 12 15 9 9 1 359 340 334 308 309 312 299
266 266 272 285 262 158 177 216 216 154 202 192 194 200 194 188 184 188 182 175 180 110 108 90 89 81 77 74 60 72 32 36 62 23 29 16 22 18 15 16 359 355 342 334 322 317 310 276 307
251 227 236 228 320 24 109 337 209 234 210 213 210 204 199 190 187 186 184 141 105 100 101 102 96 85 75 74 73 40 28 21 1 9 8 21 16 5 350 341 336 331 318 293 283 284 289 299 291
244 202 234 46 47 315 35 262 317 298 306 198 233 226 217 203 189 183 118 99 102 101 101 93 87 81 72 69 72 70 76 36 347 345 7 358 350 336 330 321 326 311 297 292 295 310 291 294 296
213 124 53 66 86 71 346 83 270 340 311 291 265 227 214 208 156 108 105 107 101 99 93 90 87 76 65 59 58 64 51 32 23 15 352 324 315 315 311 321 326 320 315 309 302 300 293 285 281
132 74 36 45 63 24 257 132 275 258 261 327 343 341 132 101 108 108 106 102 97 90 83 79 78 65 57 52 52 56 59 40 25 340 330 320 305 318 327 320 313 305 306 302 297 291 286 282 276
75 60 3 0 8 223 296 25 241 303 343 117 83 68 74 90 102 108 107 105 101 100 95 87 77 66 55 63 54 47 63 49 12 332 313 323 334 325 310 315 311 311 305 299 295 291 286 285 279
176 151 153 201 189 248 319 274 266 343 24 55 90 99 97 90 94 99 102 103 99 94 87 79 67 68 52 59 60 44 48 28 342 332 340 318 313 313 316 318 312 309 310 310 307 300 293 287 281
191 148 188 131 47 72 239 300 324 13 33 12 102 107 110 113 114 112 107 102 97 88 79 85 69 63 63 70 90 34 25 20 0 339 322 307 316 319 323 320 321 312 313 308 307 300 296 290 285
136 166 79 19 134 236 279 250 354 2 14 10 45 29 112 109 112 109 103 99 94 88 85 80 80 79 66 46 35 32 17 6 345 330 317 323 322 329 327 325 319 318 313 309 306 299 295 292 286
8 33 56 111 107 170 180 273 265 265 300 18 156 126 122 115 109 95 96 98 91 89 84 83 77 61 45 36 32 25 354 341 328 318 317 323 324 328 324 322 321 319 317 316 311 306 301 297 295
80 136 112 110 294 86 137 261 260 155 59 62 49 93 107 92 89 95 97 91 89 89 81 76 75 68 54 31 26 354 331 331 338 322 309 316 316 316 319 328 327 328 329 324 321 317 311 307 314